Date String (YYYY-MM-DD hh:mm:ss) UTC,Instrument flags,absolute air pressure of the measurement (hPa),sample flow rate (lpm),inlet stack bypass flow (lpm),air temperature of the measurement (°C),ambient temperature measured by the external sensor (°C),aerosol sample conditioner tube jacket temperature (°C),OPC LED temperature (°C),internal box temperature (°C),relative humidity of the measurement (%),span deviation,mass concentration of particles derived from Lorenz-Mie calculation of OPC scattering (μg/m³),mass concentration of particles derived from Lorenz-Mie calculation of OPC scattering (μg/m³),mass concentration of particles derived from Lorenz-Mie calculation of OPC scattering (μg/m³)
DateTimeUTC,F1_M11,P_M11,Q1_M11,Q2_M11,T1_M11,T2_M11,T3_M11,T4_M11,T5_M11,U1_M11,ZSPAN_M11,X0_M11,X2_M11,X1_M11
2023-11-09 23:00:00,SystemResetWarning,0834.1,5.00,000.00,026.0,025.2,000.0,034.4,027.3,10.2,0000.0,0008.63,0004.50,0004.03
2023-11-09 23:01:00,SystemResetWarning,0834.1,5.00,000.00,026.0,025.2,000.0,034.4,027.4,10.0,0000.0,0008.56,0004.49,0004.03
2023-11-09 23:02:00,SystemResetWarning,0834.0,5.00,000.00,026.0,025.2,000.0,034.4,027.3,9.8,0000.0,0007.94,0004.54,0004.04
2023-11-09 23:03:00,SystemResetWarning,0834.1,5.00,000.00,026.0,025.2,000.0,034.4,027.2,9.8,0000.0,0007.95,0004.53,0004.04
2023-11-09 23:04:00,SystemResetWarning,0834.1,5.00,000.00,026.0,025.2,000.0,034.4,027.3,9.8,0000.0,0007.86,0004.54,0004.05
2023-11-09 23:05:00,SystemResetWarning,0834.1,5.01,000.00,026.0,025.2,000.0,034.4,027.3,9.9,0000.0,0007.87,0004.55,0004.07
2023-11-09 23:06:00,SystemResetWarning,0834.0,5.00,000.00,026.0,025.2,000.0,034.4,027.3,9.9,0000.0,0008.69,0004.56,0004.07
2023-11-09 23:07:00,SystemResetWarning,0834.0,4.99,000.00,026.0,025.2,000.0,034.4,027.3,9.9,0000.0,0008.92,0004.55,0004.07
2023-11-09 23:08:00,SystemResetWarning,0834.0,5.00,000.00,026.0,025.2,000.0,034.4,027.3,9.9,0000.0,0009.05,0004.58,0004.08
2023-11-09 23:09:00,SystemResetWarning,0834.0,4.99,000.00,026.0,025.2,000.0,034.4,027.3,9.9,0000.0,0009.05,0004.59,0004.09
2023-11-09 23:10:00,SystemResetWarning,0834.0,5.01,000.00,026.0,025.2,000.0,034.4,027.3,9.9,0000.0,0008.43,0004.52,0004.08
2023-11-09 23:11:00,SystemResetWarning,0834.1,5.00,000.00,026.0,025.2,000.0,034.4,027.3,10.0,0000.0,0008.35,0004.50,0004.09
2023-11-09 23:12:00,SystemResetWarning,0834.1,5.00,000.00,026.0,025.2,000.0,034.4,027.3,9.9,0000.0,0008.71,0004.48,0004.07
2023-11-09 23:13:00,SystemResetWarning,0834.1,5.00,000.00,026.0,025.2,000.0,034.4,027.4,10.0,0000.0,0008.80,0004.42,0004.06
2023-11-09 23:14:00,SystemResetWarning,0834.1,5.00,000.00,026.0,025.3,000.0,034.3,027.4,10.0,0000.0,0008.97,0004.41,0004.04
2023-11-09 23:15:00,SystemResetWarning,0834.1,4.99,000.00,026.1,025.3,000.0,034.4,027.4,10.0,0000.0,0009.02,0004.39,0004.02
2023-11-09 23:16:00,SystemResetWarning,0834.1,5.00,000.00,026.1,025.3,000.0,034.4,027.4,9.9,0000.0,0009.05,0004.38,0003.98
2023-11-09 23:17:00,SystemResetWarning,0834.1,4.99,000.00,026.1,025.3,000.0,034.4,027.5,9.9,0000.0,0008.34,0004.34,0003.97
2023-11-09 23:18:00,SystemResetWarning,0834.1,5.00,000.00,026.1,025.3,000.0,034.4,027.5,9.9,0000.0,0007.91,0004.31,0003.94
2023-11-09 23:19:00,SystemResetWarning,0834.1,5.00,000.00,026.1,025.3,000.0,034.4,027.5,10.0,0000.0,0008.41,0004.32,0003.93
2023-11-09 23:20:00,SystemResetWarning,0834.1,5.00,000.00,026.1,025.3,000.0,034.4,027.5,10.0,0000.0,0008.75,0004.32,0003.91
2023-11-09 23:21:00,SystemResetWarning,0834.0,5.00,000.00,026.1,025.3,000.0,034.4,027.6,9.9,0000.0,0008.83,0004.33,0003.88
2023-11-09 23:22:00,SystemResetWarning,0834.0,5.00,000.00,026.1,025.3,000.0,034.4,027.6,9.9,0000.0,0008.78,0004.32,0003.86
2023-11-09 23:23:00,SystemResetWarning,0834.0,5.00,000.00,026.2,025.3,000.0,034.4,027.6,9.8,0000.0,0008.48,0004.31,0003.84
2023-11-09 23:24:00,SystemResetWarning,0834.0,4.99,000.00,026.2,025.4,000.0,034.4,027.6,9.8,0000.0,0008.23,0004.29,0003.83
2023-11-09 23:25:00,SystemResetWarning,0834.0,4.99,000.00,026.2,025.4,000.0,034.4,027.6,9.8,0000.0,0008.00,0004.28,0003.82
2023-11-09 23:26:00,SystemResetWarning,0834.0,4.99,000.00,026.2,025.4,000.0,034.4,027.6,9.8,0000.0,0008.35,0004.27,0003.80
2023-11-09 23:27:00,SystemResetWarning,0833.9,4.99,000.00,026.2,025.4,000.0,034.5,027.5,9.8,0000.0,0008.46,0004.23,0003.77
2023-11-09 23:28:00,SystemResetWarning,0834.0,5.01,000.00,026.2,025.4,000.0,034.5,027.5,9.7,0000.0,0008.36,0004.19,0003.75
2023-11-09 23:29:00,SystemResetWarning,0834.0,5.01,000.00,026.2,025.4,000.0,034.5,027.5,9.7,0000.0,0008.39,0004.20,0003.74
2023-11-09 23:30:00,SystemResetWarning,0834.0,5.00,000.00,026.2,025.4,000.0,034.5,027.6,9.7,0000.0,0007.84,0004.15,0003.72
2023-11-09 23:31:00,SystemResetWarning,0834.0,5.01,000.00,026.2,025.4,000.0,034.5,027.6,9.8,0000.0,0007.49,0004.10,0003.70
2023-11-09 23:32:00,SystemResetWarning,0834.0,5.01,000.00,026.2,025.4,000.0,034.5,027.6,9.7,0000.0,0007.49,0004.07,0003.70
2023-11-09 23:33:00,SystemResetWarning,0834.1,4.99,000.00,026.2,025.4,000.0,034.5,027.6,9.7,0000.0,0007.55,0004.05,0003.69
2023-11-09 23:34:00,SystemResetWarning,0833.9,4.99,000.00,026.2,025.4,000.0,034.5,027.6,9.7,0000.0,0007.54,0004.04,0003.69
2023-11-09 23:35:00,SystemResetWarning,0833.9,4.99,000.00,026.2,025.4,000.0,034.5,027.6,9.6,0000.0,0007.93,0004.04,0003.66
2023-11-09 23:36:00,SystemResetWarning,0833.9,5.00,000.00,026.3,025.4,000.0,034.5,027.6,9.6,0000.0,0007.94,0004.01,0003.65
2023-11-09 23:37:00,SystemResetWarning,0833.9,5.00,000.00,026.3,025.4,000.0,034.5,027.7,9.6,0000.0,0007.62,0003.99,0003.64
2023-11-09 23:38:00,SystemResetWarning,0833.9,5.00,000.00,026.3,025.4,000.0,034.5,027.6,9.5,0000.0,0007.36,0004.00,0003.64
2023-11-09 23:39:00,SystemResetWarning,0833.8,5.01,000.00,026.3,025.4,000.0,034.5,027.6,9.5,0000.0,0008.12,0004.03,0003.64
2023-11-09 23:40:00,SystemResetWarning,0833.9,5.00,000.00,026.2,025.4,000.0,034.5,027.5,9.5,0000.0,0008.29,0004.04,0003.63
2023-11-09 23:41:00,SystemResetWarning,0833.8,5.00,000.00,026.2,025.4,000.0,034.5,027.6,9.5,0000.0,0008.75,0004.04,0003.62
2023-11-09 23:42:00,SystemResetWarning,0833.8,5.00,000.00,026.2,025.4,000.0,034.5,027.6,9.5,0000.0,0009.13,0004.04,0003.61
2023-11-09 23:43:00,SystemResetWarning,0833.9,5.00,000.00,026.3,025.4,000.0,034.5,027.6,9.4,0000.0,0009.30,0004.06,0003.61
2023-11-09 23:44:00,SystemResetWarning,0833.8,5.00,000.00,026.3,025.4,000.0,034.5,027.6,9.4,0000.0,0009.27,0004.07,0003.61
2023-11-09 23:45:00,SystemResetWarning,0833.9,5.00,000.00,026.2,025.4,000.0,034.5,027.6,9.4,0000.0,0009.05,0004.05,0003.60
2023-11-09 23:46:00,SystemResetWarning,0833.8,5.00,000.00,026.2,025.4,000.0,034.5,027.6,9.4,0000.0,0009.37,0004.06,0003.60
2023-11-09 23:47:00,SystemResetWarning,0833.9,5.00,000.00,026.3,025.4,000.0,034.5,027.6,9.4,0000.0,0009.75,0004.06,0003.61
2023-11-09 23:48:00,SystemResetWarning,0833.9,5.00,000.00,026.3,025.4,000.0,034.6,027.7,9.4,0000.0,0009.89,0004.08,0003.61
2023-11-09 23:49:00,SystemResetWarning,0833.9,5.00,000.00,026.3,025.4,000.0,034.6,027.7,9.4,0000.0,0010.09,0004.06,0003.60
2023-11-09 23:50:00,SystemResetWarning,0833.9,5.00,000.00,026.3,025.4,000.0,034.6,027.6,9.3,0000.0,0009.85,0004.06,0003.60
2023-11-09 23:51:00,SystemResetWarning,0833.9,4.99,000.00,026.3,025.4,000.0,034.6,027.6,9.3,0000.0,0009.47,0004.06,0003.61
2023-11-09 23:52:00,SystemResetWarning,0833.8,5.00,000.00,026.3,025.4,000.0,034.6,027.6,9.3,0000.0,0009.16,0004.07,0003.61
2023-11-09 23:53:00,SystemResetWarning,0833.9,5.01,000.00,026.3,025.4,000.0,034.6,027.7,9.3,0000.0,0008.69,0004.10,0003.62
2023-11-09 23:54:00,SystemResetWarning,0833.9,5.00,000.00,026.3,025.4,000.0,034.6,027.7,9.3,0000.0,0008.65,0004.11,0003.63
2023-11-09 23:55:00,SystemResetWarning,0833.9,5.00,000.00,026.3,025.4,000.0,034.6,027.7,9.3,0000.0,0009.11,0004.13,0003.64
2023-11-09 23:56:00,SystemResetWarning,0833.9,5.00,000.00,026.3,025.4,000.0,034.6,027.7,9.3,0000.0,0009.36,0004.18,0003.65
2023-11-09 23:57:00,SystemResetWarning,0833.9,5.00,000.00,026.3,025.4,000.0,034.6,027.7,9.3,0000.0,0008.96,0004.22,0003.66
2023-11-09 23:58:00,SystemResetWarning,0833.9,4.99,000.00,026.3,025.4,000.0,034.6,027.7,9.3,0000.0,0008.49,0004.24,0003.67
2023-11-09 23:59:00,SystemResetWarning,0834.0,5.00,000.00,026.3,025.4,000.0,034.6,027.6,9.3,0000.0,0008.62,0004.25,0003.68
